Theta_e
335 335 334 333 333 332 328 326 323 322 320 321 321 320 320 320 320 317 317 315 315 317 321 324 323 323 322 323 325 327 329 330
335 335 335 334 333 333 331 327 326 324 322 321 319 319 319 318 319 319 317 317 316 315 316 317 319 320 319 322 324 327 328 329
335 335 335 335 334 332 331 329 326 325 324 322 321 320 318 318 318 317 319 318 317 316 315 315 315 315 315 316 318 321 325 327
334 334 334 334 333 330 329 328 327 326 326 325 324 321 320 318 318 318 318 317 318 318 317 317 317 317 316 316 316 316 316 316
324 326 329 329 328 327 326 325 325 325 325 324 324 324 324 321 319 319 319 319 318 318 318 317 317 317 317 317 317 317 317 318
326 326 325 326 327 327 327 329 329 327 325 325 323 323 322 323 323 323 323 325 325 327 328 327 327 328 329 329 329 327 322 318
328 327 328 329 329 329 331 334 334 332 332 334 334 333 333 332 333 332 331 328 327 329 330 331 332 333 332 331 330 330 330 330
332 328 329 329 329 330 336 334 334 334 332 332 332 332 332 332 333 334 334 334 335 334 334 334 334 335 335 334 333 332 332 331
338 335 334 334 334 333 335 334 335 333 332 332 332 331 333 332 333 332 330 332 332 333 333 332 331 333 333 333 333 333 334 334
340 340 339 339 339 337 337 339 337 335 336 338 338 335 336 335 334 334 333 333 334 334 333 334 334 334 332 333 332 332 331 331
339 340 340 340 339 339 338 338 337 337 337 336 335 336 335 336 336 335 335 335 335 336 334 334 334 335 335 334 334 335 333 333
335 336 336 336 336 336 335 335 335 334 335 334 333 333 332 332 332 332 332 332 332 333 332 332 332 333 333 333 333 333 333 333
331 332 332 332 332 331 329 328 327 324 320 319 318 318 317 317 317 316 317 317 317 318 317 317 317 318 318 318 318 323 326 327
322 326 327 327 323 322 320 319 314 313 310 309 309 307 307 307 307 307 306 306 306 306 307 307 306 306 307 311 320 315 325 325
308 310 311 311 311 311 310 309 306 304 303 301 300 300 300 300 300 300 300 300 300 299 299 300 299 299 300 304 310 312 307 312
302 302 302 302 302 302 302 301 301 300 299 299 298 298 298 298 298 298 298 298 298 298 297 298 297 297 300 300 300 306 306 307
300 300 300 299 299 299 299 299 298 297 296 296 297 297 297 298 298 298 298 298 298 298 298 298 297 297 298 298 298 299 304 302
299 299 298 298 297 297 297 297 296 296 296 297 297 297 297 297 297 297 297 298 298 298 298 298 298 298 298 298 298 298 299 298
298 298 298 297 297 297 296 296 296 296 296 296 296 296 296 296 297 297 297 298 298 298 299 299 299 299 299 299 299 299 298 298
298 298 298 297 297 297 296 295 296 296 296 296 296 296 296 296 297 297 297 298 298 298 299 299 299 299 299 299 298 297 296 296
Wind_Speed
18 15 12 10 8 6 5 5 5 5 5 5 5 4 5 5 5 4 4 6 6 6 5 4 3 2 1 1 2 4 4 4
17 15 13 10 8 6 5 4 4 4 3 3 3 3 3 4 3 4 3 2 3 5 6 6 6 6 6 7 7 7 8 8
16 15 13 11 9 7 5 4 2 2 2 2 2 2 1 1 1 2 2 4 5 5 5 6 8 9 10 11 12 12 12 13
16 15 13 12 10 7 5 3 2 1 1 1 0 0 1 1 1 2 2 3 4 5 7 8 10 11 12 13 14 15 16 17
11 11 11 10 8 6 5 4 3 3 2 2 1 1 2 2 2 3 3 4 5 7 8 9 11 12 13 14 16 18 19 20
11 10 10 9 8 7 5 4 3 3 3 2 2 2 2 3 3 3 3 4 5 6 8 9 11 12 13 15 16 17 20 22
14 13 12 10 9 8 9 6 3 2 1 0 0 2 4 4 3 3 4 6 8 8 10 11 12 14 15 17 18 18 19 20
14 15 14 14 13 12 12 8 7 6 5 5 5 4 5 6 7 8 10 11 11 12 13 14 15 17 17 18 18 18 19 20
16 17 17 17 17 16 16 15 11 11 10 12 10 11 11 13 12 12 13 16 16 18 19 19 22 23 22 23 25 24 23 23
15 16 16 16 15 16 17 14 14 13 12 11 10 9 10 13 15 15 14 17 19 21 22 25 25 26 27 26 28 29 30 29
15 16 17 15 16 16 14 11 10 11 11 7 7 9 10 12 13 15 16 18 20 18 21 21 23 26 28 31 32 33 34 34
15 15 15 14 15 13 11 7 6 5 3 5 3 4 5 6 7 8 10 11 11 13 13 15 17 21 25 28 27 28 28 28
14 14 14 12 12 13 12 11 9 8 7 3 2 2 3 4 5 6 8 9 11 13 13 15 16 19 22 24 24 20 18 20
13 13 13 12 11 12 12 11 10 8 7 5 3 3 4 6 7 8 9 10 11 12 14 14 15 19 19 18 13 20 10 13
15 15 14 13 12 10 10 9 9 8 6 5 6 7 7 7 8 9 10 11 13 15 16 17 18 17 17 12 8 8 27 13
14 15 15 14 12 10 10 9 9 8 7 8 7 8 9 11 12 13 14 14 14 15 16 15 15 15 14 15 11 9 9 21
14 14 14 14 13 11 11 10 11 11 11 10 11 11 11 12 13 15 16 17 17 17 17 17 18 16 15 16 13 15 7 16
13 13 14 14 12 12 11 11 12 11 11 10 10 11 12 13 14 14 15 15 15 15 16 17 17 16 16 18 18 16 20 17
14 12 14 13 11 12 11 11 11 11 11 12 11 12 14 15 16 16 17 17 17 17 17 17 17 18 18 18 17 18 19 20
14 12 12 11 10 10 10 10 10 10 11 11 12 14 15 16 16 17 17 18 18 18 17 18 17 17 16 17 18 17 18 19
Wind_Direction
168 166 166 164 160 156 148 145 140 139 135 128 114 84 74 93 101 105 125 137 146 157 167 179 192 219 263 304 334 336 334 318
174 174 176 175 175 174 172 162 152 142 129 114 95 94 101 94 98 122 133 160 178 185 198 218 236 251 262 272 283 292 299 303
181 184 185 184 186 190 190 185 162 132 89 60 55 49 37 52 115 145 175 191 204 227 250 260 264 267 271 274 275 277 280 282
187 193 194 193 193 193 193 187 176 146 135 113 58 357 325 326 311 299 276 253 252 257 258 258 263 269 274 278 280 280 280 279
188 192 195 193 189 185 183 183 185 186 199 219 242 277 294 287 295 301 292 283 281 277 273 274 274 276 277 277 278 279 281 282
180 182 183 178 179 180 183 190 195 209 218 240 249 264 269 275 282 283 282 282 282 288 292 291 289 286 286 284 285 287 287 284
185 181 177 177 182 188 185 191 179 142 142 171 332 15 13 3 340 321 302 285 279 277 281 282 283 283 286 289 289 290 290 291
179 183 183 182 187 192 192 205 223 220 234 248 282 289 287 291 282 299 307 309 302 297 291 289 291 293 289 288 288 288 289 290
179 182 182 187 195 192 197 211 221 241 240 234 252 257 263 254 257 252 273 279 285 287 283 287 292 292 292 291 293 294 292 292
189 192 198 196 198 199 209 212 222 228 240 247 256 257 262 266 268 274 277 279 284 276 277 279 278 279 279 282 284 283 283 282
187 192 203 218 205 210 210 227 234 244 232 253 247 251 265 267 266 274 281 284 286 284 286 289 290 284 283 285 284 282 280 284
172 179 180 182 172 173 164 175 172 214 205 214 237 267 278 282 292 296 293 294 299 300 299 300 296 295 295 296 299 297 296 293
159 163 158 169 178 174 164 162 156 164 141 133 80 21 351 338 337 337 331 329 328 323 323 324 317 315 316 308 309 306 297 289
145 159 159 164 160 157 149 143 139 127 104 88 65 43 15 359 352 348 348 346 338 335 332 334 333 333 338 335 328 324 296 292
137 138 140 143 146 146 141 136 123 114 102 73 55 42 32 21 14 8 2 356 353 350 348 347 347 348 347 351 339 316 320 317
134 135 138 137 136 140 141 139 131 106 88 69 56 42 32 28 26 25 22 18 12 8 2 356 352 348 348 343 338 289 316 314
137 138 137 133 136 137 134 124 107 96 84 69 56 44 34 29 24 20 15 12 9 4 1 360 358 356 351 345 340 343 306 300
137 136 133 129 129 120 112 103 99 97 87 74 59 46 37 32 28 25 22 17 13 8 5 2 0 358 356 349 346 340 322 315
143 142 132 126 123 115 109 103 98 86 75 64 55 46 38 33 27 25 24 22 20 18 14 11 10 6 357 349 341 333 328 316
151 151 142 131 120 109 99 92 83 76 68 58 48 43 37 31 25 24 24 24 24 22 17 13 9 4 357 349 343 336 327 319